sat.trackr.live / text

‹ back to catalog

SHIYAN-27 OBJECT F

NORAD 63604 · 2025-078F

PAYLOAD ACTIVE UNKNOWN

§ Identity

Operator
Country
PRC
Launch date
2025-04-18
Launch site
TAISC
Launch vehicle
Mass (kg)
RCS (m²)

External: N2YO · Heavens-Above · Gunter

§ Orbital elements

Epoch: 2026-09-21T23:22:56.131392Z

Period
106.10 min
Inclination
99.6946°
Eccentricity
0.0000947
Mean motion
13.57249316 rev/d
Perigee alt
1,045.0 km
Apogee alt
1,046.4 km
Semi-major
7,423.8 km
B*
6.2696e-5
RAAN
270.7509°
Arg perigee
91.6789°
Mean anomaly
268.4458°
Rev number
7,066

§ Raw data

SHIYAN-27 OBJECT F1 63604U 25078F   26264.97426078  .00000000  00000+0  62696-4 0  99962 63604  99.6946 270.7509 0000947  91.6789 268.4458 13.57249316 70661

JSON: /api/v1/satellites/63604 · /tle

For live sub-satellite position, see the globe view (requires WebGL).

§ Visibility from observer

Set your observer location to see the next 7 days of passes ≥ 10°. The values pass through the URL so the page stays shareable.

No JS? Fill the form by hand. The geolocation button needs JavaScript.